This is the latest recevied weather packets stored in our database for station/object KD5NDU-15. If no packets are shown the sender has not sent any weather packets the latest 10 day(s).
| Time | Temp. | Humidity | Pressure | Rain* | Wind** | Luminosity | Snow |
|---|---|---|---|---|---|---|---|
| 1778108508 | 14.44° C | 94% | 1010.6 hPa | 0 mm | - | 18 W/m² | - |
| 1778108208 | 14.44° C | 94% | 1010.6 hPa | 0 mm | - | 25 W/m² | - |
| 1778107908 | 14.44° C | 94% | 1010.7 hPa | 0 mm | - | 23 W/m² | - |
| 1778107608 | 14.44° C | 94% | 1010.5 hPa | 0 mm | - | 21 W/m² | - |
| 1778107308 | 14.44° C | 94% | 1010.4 hPa | 0 mm | - | 28 W/m² | - |
| 1778107008 | 14.44° C | 94% | 1010.4 hPa | 0 mm | - | 26 W/m² | - |
| 1778106708 | 14.44° C | 94% | 1010.3 hPa | 0 mm | - | 40 W/m² | - |
| 1778106408 | 14.44° C | 95% | 1010 hPa | 0 mm | - | 69 W/m² | - |
| 1778106108 | 14.44° C | 95% | 1009.6 hPa | 0 mm | - | 156 W/m² | - |
| 1778105808 | 14.44° C | 94% | 1009.4 hPa | 0 mm | - | 160 W/m² | - |
| 1778105508 | 13.89° C | 95% | 1009.6 hPa | 0 mm | - | 109 W/m² | - |
| 1778105212 | 13.89° C | 95% | 1009.7 hPa | 0 mm | - | 149 W/m² | - |
| 1778104908 | 13.89° C | 96% | 1009.3 hPa | 0 mm | - | 113 W/m² | - |
| 1778104608 | 13.89° C | 95% | 1009.7 hPa | 0 mm | - | 97 W/m² | - |
| 1778104308 | 13.89° C | 95% | 1009.6 hPa | 0 mm | - | 58 W/m² | - |
| 1778104008 | 13.89° C | 96% | 1010.2 hPa | 0 mm | - | 30 W/m² | - |
| 1778103710 | 13.89° C | 97% | 1010.6 hPa | 0 mm | - | 56 W/m² | - |
| 1778103417 | 13.89° C | 96% | 1010.6 hPa | 0 mm | - | 162 W/m² | - |
| 1778103108 | 13.89° C | 96% | 1010.8 hPa | 0 mm | - | 142 W/m² | - |
| 1778102808 | 13.89° C | 97% | 1010.7 hPa | 0 mm | - | 123 W/m² | - |
| 1778102508 | 13.89° C | 96% | 1010.7 hPa | 0 mm | - | 67 W/m² | - |
| 1778102208 | 13.89° C | 96% | 1011 hPa | 0 mm | - | 58 W/m² | - |
| 1778101908 | 13.89° C | 96% | 1011.2 hPa | 0 mm | - | 62 W/m² | - |
| 1778101608 | 14.44° C | 96% | 1011.3 hPa | 0 mm | - | 79 W/m² | - |
| 1778101310 | 14.44° C | 96% | 1011.2 hPa | 0 mm | - | 83 W/m² | - |
* Rain latest hour (hover to see other rain measurements)
** Current wind speed in m/s (hover to see current wind gust speed)